TimeCDT,TemperatureF,Dew PointF,Humidity,Sea Level PressureIn,VisibilityMPH,Wind Direction,Wind SpeedMPH,Gust SpeedMPH,PrecipitationIn,Events,Conditions,WindDirDegrees,DateUTC
12:53 AM,55.0,36.0,49,29.63,10.0,South,15.0,24.2,N/A,,Clear,170,2014-04-02 05:53:00
1:53 AM,55.9,39.0,53,29.61,10.0,SSE,16.1,-,N/A,,Clear,160,2014-04-02 06:53:00
2:53 AM,55.0,39.0,55,29.61,10.0,Variable,3.5,-,N/A,,Clear,0,2014-04-02 07:53:00
3:53 AM,46.0,36.0,68,29.62,10.0,NNE,3.5,-,N/A,,Clear,30,2014-04-02 08:53:00
4:53 AM,41.0,35.1,79,29.62,10.0,North,6.9,-,N/A,,Clear,10,2014-04-02 09:53:00
5:53 AM,39.0,36.0,89,29.62,10.0,North,4.6,-,N/A,,Clear,360,2014-04-02 10:53:00
7:53 AM,34.0,32.0,92,29.66,6.0,NNW,10.4,-,N/A,,Clear,330,2014-04-02 12:53:00
8:12 AM,33.1,30.9,92,29.72,6.0,NNW,6.9,-,N/A,,Scattered Clouds,340,2014-04-02 13:12:00
8:20 AM,33.1,30.9,92,29.73,6.0,NNW,4.6,-,N/A,,Mostly Cloudy,340,2014-04-02 13:20:00
8:53 AM,36.0,34.0,93,29.70,4.0,North,6.9,-,N/A,,Overcast,350,2014-04-02 13:53:00
9:00 AM,37.0,34.0,89,29.74,1.5,NNE,5.8,-,N/A,,Overcast,20,2014-04-02 14:00:00
9:08 AM,36.0,35.1,97,29.74,0.2,North,4.6,-,N/A,Fog,Fog,360,2014-04-02 14:08:00
9:15 AM,36.0,36.0,100,29.75,1.0,Calm,Calm,-,N/A,,Overcast,0,2014-04-02 14:15:00
9:25 AM,37.9,35.1,89,29.75,2.5,North,3.5,-,N/A,,Overcast,10,2014-04-02 14:25:00
9:53 AM,39.0,35.1,86,29.70,3.0,NNW,6.9,-,N/A,,Overcast,330,2014-04-02 14:53:00
10:17 AM,42.1,36.0,79,29.74,5.0,NNW,6.9,-,N/A,,Haze,340,2014-04-02 15:17:00
10:53 AM,46.9,36.0,66,29.69,6.0,NNW,8.1,-,N/A,,Haze,330,2014-04-02 15:53:00
11:53 AM,54.0,34.0,47,29.67,9.0,Variable,4.6,-,N/A,,Clear,0,2014-04-02 16:53:00
12:53 PM,63.0,30.9,30,29.62,10.0,South,4.6,-,N/A,,Clear,180,2014-04-02 17:53:00
1:53 PM,73.0,28.0,19,29.54,10.0,Variable,4.6,-,N/A,,Clear,0,2014-04-02 18:53:00
2:53 PM,82.0,3.0,5,29.47,10.0,SSW,26.5,33.4,N/A,,Clear,200,2014-04-02 19:53:00
3:53 PM,82.9,3.0,5,29.45,10.0,SSW,25.3,33.4,N/A,,Clear,200,2014-04-02 20:53:00
5:53 PM,82.9,3.0,5,29.43,10.0,SSW,25.3,33.4,N/A,,Clear,200,2014-04-02 22:53:00
6:53 PM,82.0,5.0,5,29.43,10.0,SSW,20.7,-,N/A,,Clear,200,2014-04-02 23:53:00
7:53 PM,73.0,6.1,7,29.44,10.0,SSW,10.4,-,N/A,,Clear,200,2014-04-03 00:53:00
8:53 PM,63.0,9.0,12,29.46,10.0,SSW,5.8,-,N/A,,Clear,210,2014-04-03 01:53:00
9:53 PM,57.0,10.9,16,29.50,10.0,SSW,4.6,-,N/A,,Clear,210,2014-04-03 02:53:00
10:53 PM,59.0,37.0,44,29.50,10.0,ENE,6.9,-,N/A,,Clear,70,2014-04-03 03:53:00
11:53 PM,54.0,39.9,59,29.52,10.0,East,6.9,-,N/A,,Clear,80,2014-04-03 04:53:00